KLM741 EHAM-SKBO

Flight info

Callsign KLM741
Flight time N/A
Altitude 34000
Route IDRID2N IDRID L980 LOGAN DCT SAM N19 ADKIK DCT JOZMA DCT GAPLI/M082F340 DCT OMOKO DCT 45N020W 38N030W/M082F360 30N040W/M082F380 26N045W 22N050W DCT GLAAS/N0474F380 DCT 17N057W DCT ONGAL/N0469F400 UA551 MASPA DCT TOROP DCT PBL UP533 KIKAS DCT DOPLO DOPLO4W
Aircraft A339/H-SADE1E2E3GHIJ3J5M1P2RWXY/LB2D1

Departure

Time N/A
Airport Amsterdam Airport Schiphol (EHAM)

Arrival

Time 2026-04-30 17:48
Airport El Dorado International Airport (SKBO)
Time Latitude Longitude Altitude Speed Heading
2026-04-30 10:43 35.84723 -32.99241 33967 ft 450 kts 238°
2026-04-30 10:44 35.80468 -33.04889 33972 ft 450 kts 238°
2026-04-30 10:44 35.76209 -33.10535 33967 ft 450 kts 238°
2026-04-30 10:45 35.71943 -33.16181 33967 ft 450 kts 238°
2026-04-30 10:45 35.67673 -33.21822 33968 ft 450 kts 238°
2026-04-30 10:46 35.63430 -33.27419 33973 ft 450 kts 238°
2026-04-30 10:46 35.59148 -33.33054 33972 ft 450 kts 238°
2026-04-30 10:47 35.54867 -33.38682 33981 ft 450 kts 238°
2026-04-30 10:47 35.50607 -33.44273 33992 ft 451 kts 238°
2026-04-30 10:48 35.46316 -33.49893 33977 ft 451 kts 237°
2026-04-30 10:48 35.42017 -33.55515 33982 ft 451 kts 238°
2026-04-30 10:49 35.37747 -33.61091 33986 ft 451 kts 237°
2026-04-30 10:49 35.33441 -33.66702 33985 ft 451 kts 238°
2026-04-30 10:50 35.31288 -33.69507 33832 ft 450 kts 237°
2026-04-30 10:50 35.29212 -33.72221 33987 ft 425 kts 234°
2026-04-30 10:50 35.27242 -33.74771 33985 ft 410 kts 234°
2026-04-30 10:50 35.25282 -33.77314 33992 ft 412 kts 234°
2026-04-30 10:51 35.21319 -33.82475 33989 ft 418 kts 234°
2026-04-30 10:51 35.17324 -33.87649 33990 ft 417 kts 234°
2026-04-30 10:52 35.13364 -33.92770 33984 ft 417 kts 234°
2026-04-30 10:52 35.09372 -33.97924 33992 ft 417 kts 234°
2026-04-30 10:53 35.05383 -34.03068 33994 ft 417 kts 234°
2026-04-30 10:53 35.01389 -34.08209 33995 ft 416 kts 234°
2026-04-30 10:54 34.97420 -34.13311 33994 ft 416 kts 234°
2026-04-30 10:54 34.93431 -34.18431 33995 ft 416 kts 234°
2026-04-30 10:55 34.89446 -34.23539 33994 ft 416 kts 234°
2026-04-30 10:55 34.85481 -34.28613 34002 ft 415 kts 233°
2026-04-30 10:56 34.81491 -34.33711 34001 ft 415 kts 233°
2026-04-30 10:56 34.77501 -34.38801 34000 ft 415 kts 233°
2026-04-30 10:57 34.73512 -34.43883 33995 ft 415 kts 233°
2026-04-30 10:57 34.69518 -34.48964 33989 ft 415 kts 233°
2026-04-30 10:58 34.65560 -34.53991 33991 ft 414 kts 233°
2026-04-30 10:58 34.61570 -34.59052 34004 ft 414 kts 233°
2026-04-30 10:59 34.57574 -34.64112 34005 ft 414 kts 233°
2026-04-30 10:59 34.53581 -34.69161 34004 ft 414 kts 233°
2026-04-30 11:00 34.49586 -34.74204 34004 ft 414 kts 232°
2026-04-30 11:00 34.45619 -34.79205 34007 ft 414 kts 232°
2026-04-30 11:01 34.41618 -34.84240 34003 ft 414 kts 232°
2026-04-30 11:01 34.37620 -34.89266 34002 ft 414 kts 232°
2026-04-30 11:02 34.33621 -34.94284 34003 ft 414 kts 232°
2026-04-30 11:02 34.29617 -34.99302 34009 ft 414 kts 232°
2026-04-30 11:03 34.25638 -35.04281 34007 ft 414 kts 232°
2026-04-30 11:04 34.19619 -35.11799 34006 ft 414 kts 232°
2026-04-30 11:04 34.15627 -35.16776 34005 ft 414 kts 232°
2026-04-30 11:05 34.11622 -35.21762 34007 ft 413 kts 232°
2026-04-30 11:05 34.07618 -35.26741 34006 ft 413 kts 232°
2026-04-30 11:06 34.03607 -35.31721 34001 ft 413 kts 232°
2026-04-30 11:06 33.99601 -35.36687 34004 ft 412 kts 232°
2026-04-30 11:07 33.95624 -35.41611 34009 ft 412 kts 232°
2026-04-30 11:07 33.91625 -35.46554 34001 ft 412 kts 232°
2026-04-30 11:08 33.87620 -35.51499 34013 ft 411 kts 232°
2026-04-30 11:08 33.83640 -35.56404 34002 ft 411 kts 232°
2026-04-30 11:09 33.79644 -35.61322 34001 ft 410 kts 232°
2026-04-30 11:09 33.75644 -35.66239 34000 ft 410 kts 231°
2026-04-30 11:10 33.71679 -35.71105 34004 ft 409 kts 231°
2026-04-30 11:10 33.67700 -35.75983 33994 ft 409 kts 231°
2026-04-30 11:11 33.63718 -35.80856 33998 ft 408 kts 231°
2026-04-30 11:11 33.59747 -35.85710 34019 ft 406 kts 231°
2026-04-30 11:12 33.55785 -35.90546 34017 ft 406 kts 231°
2026-04-30 11:12 33.51852 -35.95339 34007 ft 405 kts 231°
2026-04-30 11:13 33.47903 -36.00146 33991 ft 404 kts 231°
2026-04-30 11:13 33.43976 -36.04920 34004 ft 403 kts 231°
2026-04-30 11:14 33.40015 -36.09729 34010 ft 402 kts 231°
2026-04-30 11:14 33.36113 -36.14459 34004 ft 402 kts 231°
2026-04-30 11:15 33.32183 -36.19216 34001 ft 401 kts 231°
2026-04-30 11:15 33.28256 -36.23964 33979 ft 401 kts 231°
2026-04-30 11:16 33.24964 -36.27915 34007 ft 406 kts 234°
2026-04-30 11:16 33.20906 -36.32814 33996 ft 422 kts 234°
2026-04-30 11:17 33.16724 -36.37865 33999 ft 437 kts 233°
2026-04-30 11:17 33.12384 -36.43080 33997 ft 445 kts 233°
2026-04-30 11:18 33.08027 -36.48296 33991 ft 444 kts 233°
2026-04-30 11:18 33.01489 -36.56127 33993 ft 442 kts 233°
2026-04-30 11:19 32.97150 -36.61318 33990 ft 442 kts 233°
2026-04-30 11:19 32.92801 -36.66516 34000 ft 441 kts 233°
2026-04-30 11:20 32.88491 -36.71659 33991 ft 441 kts 233°
2026-04-30 11:20 32.84156 -36.76825 33995 ft 440 kts 232°
2026-04-30 11:21 32.79834 -36.81966 33990 ft 439 kts 232°
2026-04-30 11:21 32.75537 -36.87070 33992 ft 438 kts 232°
2026-04-30 11:22 32.71219 -36.92192 33987 ft 438 kts 232°
2026-04-30 11:22 32.66908 -36.97300 33989 ft 438 kts 232°
2026-04-30 11:23 32.62594 -37.02402 33979 ft 437 kts 232°
2026-04-30 11:24 32.56143 -37.10016 33977 ft 437 kts 231°
2026-04-30 11:24 32.51829 -37.15101 33978 ft 437 kts 231°
2026-04-30 11:25 32.45358 -37.22712 33972 ft 436 kts 231°
2026-04-30 11:26 32.36775 -37.32780 33966 ft 435 kts 231°
2026-04-30 11:26 32.32474 -37.37814 33959 ft 434 kts 231°
2026-04-30 11:27 32.28180 -37.42834 33953 ft 434 kts 231°
2026-04-30 11:27 32.23921 -37.47807 33969 ft 433 kts 231°
2026-04-30 11:28 32.17481 -37.55311 33954 ft 433 kts 231°
2026-04-30 11:29 32.13188 -37.60305 33961 ft 432 kts 230°
2026-04-30 11:29 32.06780 -37.67745 33953 ft 432 kts 230°
2026-04-30 11:30 32.00349 -37.75197 33950 ft 432 kts 230°
2026-04-30 11:31 31.96062 -37.80157 33951 ft 432 kts 230°
2026-04-30 11:31 31.91769 -37.85116 33945 ft 432 kts 230°
2026-04-30 11:32 31.87477 -37.90066 33946 ft 431 kts 230°
2026-04-30 11:32 31.83215 -37.94976 33934 ft 431 kts 230°
2026-04-30 11:33 31.76776 -38.02381 33930 ft 431 kts 230°
2026-04-30 11:33 31.72483 -38.07310 33937 ft 431 kts 229°
2026-04-30 11:34 31.68207 -38.12211 33931 ft 431 kts 229°
2026-04-30 11:34 31.63913 -38.17127 33931 ft 430 kts 229°
2026-04-30 11:35 31.59618 -38.22038 33922 ft 430 kts 229°
2026-04-30 11:35 31.55352 -38.26909 33921 ft 430 kts 229°
2026-04-30 11:36 31.51061 -38.31802 33911 ft 430 kts 229°
2026-04-30 11:36 31.46790 -38.36666 33914 ft 430 kts 229°
2026-04-30 11:37 31.42490 -38.41555 33912 ft 430 kts 229°
2026-04-30 11:37 31.38191 -38.46437 33908 ft 430 kts 229°
2026-04-30 11:38 31.33893 -38.51310 33908 ft 430 kts 229°
2026-04-30 11:38 31.29615 -38.56155 33909 ft 430 kts 229°
2026-04-30 11:39 31.25319 -38.61017 33904 ft 430 kts 228°
2026-04-30 11:39 31.21001 -38.65894 33907 ft 429 kts 229°
2026-04-30 11:40 31.18874 -38.68293 33917 ft 418 kts 228°
2026-04-30 11:40 31.16807 -38.70620 33906 ft 410 kts 228°
2026-04-30 11:40 31.12692 -38.75260 33908 ft 416 kts 228°
2026-04-30 11:41 31.08518 -38.79956 33903 ft 416 kts 228°
2026-04-30 11:41 31.04340 -38.84650 33900 ft 418 kts 228°
2026-04-30 11:42 31.00142 -38.89359 33896 ft 416 kts 228°
2026-04-30 11:42 30.95989 -38.94014 33901 ft 417 kts 228°
2026-04-30 11:43 30.91803 -38.98703 33894 ft 417 kts 228°
2026-04-30 11:43 30.87607 -39.03395 33899 ft 418 kts 227°
2026-04-30 11:44 30.83431 -39.08057 33898 ft 418 kts 227°
2026-04-30 11:44 30.79232 -39.12739 33899 ft 418 kts 227°
2026-04-30 11:45 30.75026 -39.17424 33897 ft 418 kts 227°
2026-04-30 11:45 30.70819 -39.22104 33896 ft 419 kts 227°
2026-04-30 11:46 30.66602 -39.26788 33895 ft 419 kts 227°
2026-04-30 11:46 30.62401 -39.31448 33896 ft 419 kts 227°
2026-04-30 11:47 30.58175 -39.36131 33895 ft 420 kts 227°
2026-04-30 11:47 30.53941 -39.40817 33900 ft 420 kts 227°
2026-04-30 11:48 30.49706 -39.45499 33901 ft 420 kts 227°
2026-04-30 11:48 30.45466 -39.50179 33898 ft 420 kts 227°
2026-04-30 11:49 30.41253 -39.54823 33892 ft 420 kts 227°
2026-04-30 11:49 30.37009 -39.59497 33897 ft 420 kts 227°
2026-04-30 11:50 30.32768 -39.64164 33917 ft 420 kts 227°
2026-04-30 11:50 30.28530 -39.68823 33904 ft 420 kts 227°
2026-04-30 11:51 30.24292 -39.73476 33883 ft 420 kts 227°
2026-04-30 11:51 30.20078 -39.78096 33893 ft 420 kts 227°
2026-04-30 11:52 30.15824 -39.82755 33891 ft 420 kts 227°
2026-04-30 11:52 30.11594 -39.87380 33887 ft 420 kts 227°
2026-04-30 11:53 30.07350 -39.92017 33892 ft 420 kts 227°
2026-04-30 11:53 30.03101 -39.96652 33891 ft 420 kts 227°
2026-04-30 11:54 29.98862 -40.01300 33888 ft 419 kts 229°
2026-04-30 11:54 29.95059 -40.06329 33888 ft 417 kts 233°
2026-04-30 11:55 29.91316 -40.11467 33893 ft 418 kts 232°
2026-04-30 11:55 29.87514 -40.16550 33894 ft 418 kts 232°
2026-04-30 11:56 29.83717 -40.21579 33895 ft 418 kts 232°
2026-04-30 11:56 29.79890 -40.26636 33894 ft 419 kts 232°
2026-04-30 11:57 29.76056 -40.31699 33897 ft 419 kts 232°
2026-04-30 11:57 29.72221 -40.36753 33897 ft 419 kts 232°
2026-04-30 11:58 29.68412 -40.41767 33892 ft 418 kts 232°
2026-04-30 11:58 29.64589 -40.46792 33899 ft 418 kts 232°
2026-04-30 11:59 29.60750 -40.51831 33914 ft 419 kts 232°
2026-04-30 11:59 29.58825 -40.54357 34093 ft 419 kts 232°
2026-04-30 11:59 29.56906 -40.56871 34291 ft 417 kts 232°
2026-04-30 12:00 29.54991 -40.59378 34498 ft 416 kts 232°
2026-04-30 12:00 29.53107 -40.61843 34681 ft 415 kts 232°
2026-04-30 12:00 29.51205 -40.64331 34880 ft 414 kts 232°
2026-04-30 12:00 29.49302 -40.66818 35084 ft 413 kts 232°
2026-04-30 12:01 29.47404 -40.69298 35259 ft 412 kts 232°
2026-04-30 12:01 29.45515 -40.71764 35446 ft 411 kts 233°
2026-04-30 12:01 29.43627 -40.74227 35616 ft 411 kts 233°
2026-04-30 12:01 29.41741 -40.76688 35792 ft 410 kts 233°
2026-04-30 12:02 29.37976 -40.81594 35890 ft 409 kts 233°
2026-04-30 12:02 29.34230 -40.86469 35893 ft 409 kts 233°
2026-04-30 12:03 29.28587 -40.93805 35891 ft 409 kts 233°
2026-04-30 12:04 29.25460 -40.97864 35896 ft 409 kts 233°
2026-04-30 12:04 29.21696 -41.02743 35892 ft 409 kts 233°
2026-04-30 12:05 29.17926 -41.07625 35892 ft 409 kts 233°
2026-04-30 12:05 29.14176 -41.12474 35894 ft 408 kts 233°
2026-04-30 12:06 29.10400 -41.17352 35890 ft 408 kts 233°
2026-04-30 12:06 29.06624 -41.22225 35887 ft 409 kts 233°
2026-04-30 12:07 29.02863 -41.27071 35888 ft 409 kts 233°
2026-04-30 12:07 28.99078 -41.31943 35890 ft 409 kts 233°
2026-04-30 12:08 28.95293 -41.36810 35886 ft 410 kts 233°
2026-04-30 12:08 28.91515 -41.41661 35888 ft 411 kts 233°
2026-04-30 12:09 28.87708 -41.46542 35895 ft 411 kts 233°
2026-04-30 12:09 28.83895 -41.51427 35895 ft 411 kts 233°
2026-04-30 12:10 28.80106 -41.56276 35893 ft 412 kts 233°
2026-04-30 12:10 28.76288 -41.61155 35898 ft 412 kts 233°
2026-04-30 12:11 28.72470 -41.66028 35898 ft 412 kts 233°
2026-04-30 12:11 28.68645 -41.70905 35896 ft 412 kts 233°
2026-04-30 12:12 28.64837 -41.75753 35892 ft 413 kts 233°
2026-04-30 12:12 28.61003 -41.80630 35895 ft 413 kts 233°
2026-04-30 12:13 28.57158 -41.85514 35897 ft 413 kts 233°
2026-04-30 12:13 28.53340 -41.90359 35901 ft 414 kts 233°
2026-04-30 12:14 28.49484 -41.95247 35898 ft 414 kts 233°
2026-04-30 12:14 28.45646 -42.00106 35899 ft 414 kts 233°
2026-04-30 12:15 28.41791 -42.04979 35897 ft 415 kts 233°
2026-04-30 12:15 28.37932 -42.09853 35900 ft 415 kts 233°
2026-04-30 12:16 28.34065 -42.14731 35897 ft 415 kts 233°
2026-04-30 12:16 28.30192 -42.19610 35897 ft 416 kts 233°
2026-04-30 12:17 28.24396 -42.26903 35901 ft 416 kts 233°
2026-04-30 12:17 28.20524 -42.31767 35904 ft 417 kts 233°
2026-04-30 12:18 28.16635 -42.36647 35900 ft 417 kts 233°
2026-04-30 12:18 28.12738 -42.41531 35905 ft 418 kts 233°
2026-04-30 12:19 28.08838 -42.46413 35918 ft 418 kts 233°
2026-04-30 12:19 28.04932 -42.51297 35901 ft 418 kts 233°
2026-04-30 12:20 28.01016 -42.56188 35894 ft 419 kts 233°
2026-04-30 12:20 27.97123 -42.61045 35894 ft 419 kts 233°
2026-04-30 12:21 27.93201 -42.65931 35912 ft 419 kts 233°
2026-04-30 12:21 27.89271 -42.70823 35918 ft 419 kts 233°
2026-04-30 12:22 27.85360 -42.75685 35911 ft 420 kts 233°
2026-04-30 12:22 27.81420 -42.80577 35908 ft 420 kts 233°
2026-04-30 12:23 27.77503 -42.85435 35907 ft 420 kts 233°
2026-04-30 12:23 27.73555 -42.90326 35909 ft 421 kts 233°
2026-04-30 12:24 27.69600 -42.95221 35911 ft 421 kts 233°
2026-04-30 12:24 27.65643 -43.00112 35916 ft 422 kts 233°
2026-04-30 12:25 27.61707 -43.04971 35913 ft 422 kts 233°
2026-04-30 12:25 27.57733 -43.09871 35911 ft 423 kts 233°
2026-04-30 12:26 27.53753 -43.14773 35916 ft 423 kts 233°
2026-04-30 12:26 27.49800 -43.19637 35917 ft 424 kts 233°
2026-04-30 12:27 27.45813 -43.24536 35918 ft 424 kts 233°
2026-04-30 12:27 27.41822 -43.29435 35918 ft 424 kts 233°
2026-04-30 12:28 27.37826 -43.34334 35920 ft 424 kts 233°
2026-04-30 12:28 27.33830 -43.39228 35917 ft 425 kts 233°
2026-04-30 12:29 27.29824 -43.44129 35917 ft 425 kts 233°
2026-04-30 12:29 27.25840 -43.48997 35921 ft 426 kts 233°
2026-04-30 12:30 27.21818 -43.53905 35921 ft 426 kts 233°
2026-04-30 12:30 27.17794 -43.58811 35922 ft 427 kts 233°
2026-04-30 12:31 27.13784 -43.63695 35922 ft 427 kts 233°
2026-04-30 12:31 27.09748 -43.68604 35922 ft 428 kts 233°
2026-04-30 12:32 27.05704 -43.73517 35923 ft 428 kts 232°
2026-04-30 12:32 27.01654 -43.78430 35926 ft 429 kts 232°
2026-04-30 12:33 26.97623 -43.83317 35929 ft 429 kts 232°
2026-04-30 12:33 26.93557 -43.88240 35931 ft 430 kts 232°
2026-04-30 12:34 26.89493 -43.93154 35935 ft 430 kts 232°
2026-04-30 12:34 26.85444 -43.98045 35932 ft 430 kts 232°
2026-04-30 12:35 26.81364 -44.02967 35931 ft 431 kts 232°
2026-04-30 12:35 26.77279 -44.07891 35935 ft 431 kts 232°
2026-04-30 12:36 26.73212 -44.12787 35936 ft 432 kts 232°
2026-04-30 12:36 26.69115 -44.17713 35935 ft 432 kts 232°
2026-04-30 12:37 26.65012 -44.22641 35935 ft 433 kts 232°
2026-04-30 12:37 26.60899 -44.27575 35937 ft 433 kts 232°
2026-04-30 12:38 26.56788 -44.32502 35937 ft 434 kts 232°
2026-04-30 12:38 26.52691 -44.37407 35935 ft 434 kts 232°
2026-04-30 12:39 26.48567 -44.42338 35951 ft 435 kts 232°
2026-04-30 12:39 26.44437 -44.47270 35955 ft 435 kts 232°
2026-04-30 12:40 26.40298 -44.52208 35948 ft 435 kts 232°
2026-04-30 12:40 26.36159 -44.57140 35933 ft 436 kts 232°
2026-04-30 12:41 26.32010 -44.62078 35942 ft 436 kts 232°
2026-04-30 12:41 26.27881 -44.66988 35948 ft 436 kts 232°
2026-04-30 12:42 26.23726 -44.71923 35945 ft 437 kts 232°
2026-04-30 12:42 26.19557 -44.76869 35939 ft 437 kts 232°
2026-04-30 12:43 26.15412 -44.81781 35951 ft 438 kts 232°
2026-04-30 12:43 26.11237 -44.86725 35952 ft 438 kts 232°
2026-04-30 12:44 26.07058 -44.91670 35950 ft 438 kts 231°
2026-04-30 12:44 26.02899 -44.96586 35956 ft 439 kts 231°
2026-04-30 12:45 25.98720 -45.01548 35955 ft 438 kts 233°
2026-04-30 12:45 25.94803 -45.06714 35960 ft 437 kts 235°
2026-04-30 12:46 25.92864 -45.09322 36095 ft 438 kts 235°
2026-04-30 12:46 25.90911 -45.11928 36238 ft 438 kts 234°
2026-04-30 12:46 25.88947 -45.14525 36384 ft 438 kts 234°
2026-04-30 12:46 25.87005 -45.17084 36521 ft 439 kts 234°
2026-04-30 12:47 25.85036 -45.19672 36659 ft 439 kts 234°
2026-04-30 12:47 25.83061 -45.22265 36794 ft 439 kts 234°
2026-04-30 12:47 25.81088 -45.24852 36933 ft 439 kts 234°
2026-04-30 12:47 25.79111 -45.27446 37069 ft 439 kts 234°
2026-04-30 12:48 25.77136 -45.30033 37201 ft 439 kts 234°
2026-04-30 12:48 25.75161 -45.32619 37352 ft 439 kts 235°
2026-04-30 12:48 25.73185 -45.35205 37476 ft 440 kts 235°
2026-04-30 12:48 25.71204 -45.37796 37612 ft 440 kts 235°
2026-04-30 12:49 25.69221 -45.40387 37747 ft 440 kts 235°
2026-04-30 12:49 25.67238 -45.42977 37881 ft 440 kts 235°
2026-04-30 12:49 25.63302 -45.48114 37975 ft 439 kts 235°
2026-04-30 12:50 25.59344 -45.53274 37974 ft 439 kts 235°
2026-04-30 12:50 25.55379 -45.58437 37975 ft 439 kts 235°
2026-04-30 12:51 25.51422 -45.63584 37966 ft 439 kts 235°
2026-04-30 12:51 25.47453 -45.68740 37964 ft 439 kts 235°
2026-04-30 12:52 25.43511 -45.73857 37967 ft 439 kts 235°
2026-04-30 12:52 25.39539 -45.79005 37968 ft 439 kts 235°
2026-04-30 12:53 25.35592 -45.84116 37973 ft 439 kts 235°
2026-04-30 12:53 25.31628 -45.89243 37973 ft 439 kts 235°
2026-04-30 12:54 25.28333 -45.93502 37974 ft 438 kts 235°
2026-04-30 12:54 25.24370 -45.98616 37976 ft 438 kts 235°
2026-04-30 12:55 25.20410 -46.03723 37977 ft 437 kts 235°
2026-04-30 12:55 25.16444 -46.08830 37975 ft 437 kts 235°
2026-04-30 12:56 25.12485 -46.13923 37977 ft 436 kts 235°
2026-04-30 12:56 25.08546 -46.18987 37974 ft 436 kts 235°
2026-04-30 12:57 25.04597 -46.24056 37977 ft 435 kts 235°
2026-04-30 12:57 25.00648 -46.29121 37982 ft 435 kts 235°
2026-04-30 12:58 24.96699 -46.34179 37981 ft 434 kts 235°
2026-04-30 12:58 24.92780 -46.39194 37989 ft 434 kts 235°
2026-04-30 12:59 24.88842 -46.44227 37983 ft 433 kts 235°
2026-04-30 12:59 24.84911 -46.49246 37982 ft 432 kts 235°
2026-04-30 13:00 24.80988 -46.54249 37991 ft 431 kts 235°
2026-04-30 13:00 24.77070 -46.59243 37988 ft 430 kts 236°
2026-04-30 13:01 24.73193 -46.64178 37987 ft 429 kts 236°
2026-04-30 13:01 24.69294 -46.69136 37986 ft 428 kts 236°
2026-04-30 13:02 24.65398 -46.74084 37990 ft 427 kts 236°
2026-04-30 13:02 24.61512 -46.79015 37990 ft 426 kts 236°
2026-04-30 13:03 24.57657 -46.83902 37989 ft 425 kts 236°
2026-04-30 13:03 24.53781 -46.88810 37990 ft 424 kts 236°
2026-04-30 13:04 24.49932 -46.93680 37994 ft 423 kts 236°
2026-04-30 13:04 24.46073 -46.98557 37983 ft 422 kts 236°
2026-04-30 13:05 24.42221 -47.03420 37975 ft 421 kts 236°
2026-04-30 13:06 24.36479 -47.10660 38002 ft 420 kts 236°
2026-04-30 13:06 24.32645 -47.15489 38003 ft 419 kts 236°
2026-04-30 13:07 24.28820 -47.20301 37996 ft 418 kts 236°
2026-04-30 13:07 24.24993 -47.25111 37989 ft 417 kts 236°
2026-04-30 13:08 24.21174 -47.29907 37988 ft 417 kts 236°
2026-04-30 13:08 24.17383 -47.34663 37982 ft 417 kts 236°
2026-04-30 13:09 24.13567 -47.39445 37989 ft 416 kts 236°
2026-04-30 13:09 24.09755 -47.44217 37984 ft 416 kts 236°
2026-04-30 13:10 24.05939 -47.48990 37994 ft 416 kts 236°
2026-04-30 13:10 24.02128 -47.53752 37992 ft 416 kts 236°
2026-04-30 13:11 23.98315 -47.58511 37988 ft 416 kts 236°
2026-04-30 13:11 23.94494 -47.63275 37991 ft 416 kts 236°
2026-04-30 13:12 23.90702 -47.67999 37996 ft 416 kts 236°
2026-04-30 13:12 23.86883 -47.72753 38001 ft 416 kts 236°
2026-04-30 13:13 23.81148 -47.79882 37999 ft 416 kts 236°
2026-04-30 13:14 23.75445 -47.86961 37999 ft 415 kts 236°
2026-04-30 13:14 23.69713 -47.94065 38001 ft 415 kts 236°
2026-04-30 13:15 23.64006 -48.01129 38001 ft 415 kts 236°
2026-04-30 13:16 23.60190 -48.05846 38002 ft 415 kts 236°
2026-04-30 13:16 23.56371 -48.10563 38005 ft 414 kts 236°
2026-04-30 13:17 23.50639 -48.17633 38004 ft 414 kts 236°
2026-04-30 13:18 23.44931 -48.24664 38006 ft 414 kts 236°
2026-04-30 13:18 23.39199 -48.31717 38008 ft 414 kts 236°
2026-04-30 13:19 23.35370 -48.36422 38007 ft 414 kts 236°
2026-04-30 13:19 23.31570 -48.41086 38008 ft 414 kts 236°
2026-04-30 13:20 23.27743 -48.45779 38006 ft 414 kts 236°
2026-04-30 13:20 23.23921 -48.50462 38009 ft 414 kts 236°
2026-04-30 13:21 23.20114 -48.55121 38009 ft 414 kts 236°
2026-04-30 13:22 23.14374 -48.62139 38010 ft 413 kts 236°
2026-04-30 13:22 23.08636 -48.69145 38016 ft 413 kts 236°
2026-04-30 13:23 23.02924 -48.76110 38017 ft 413 kts 236°
2026-04-30 13:24 22.95279 -48.85415 38020 ft 412 kts 236°
2026-04-30 13:25 22.87666 -48.94664 38012 ft 412 kts 236°
2026-04-30 13:26 22.78115 -49.06245 38020 ft 411 kts 236°
2026-04-30 13:28 22.68591 -49.17768 38028 ft 412 kts 236°
2026-04-30 13:28 22.62847 -49.24705 38012 ft 413 kts 236°
2026-04-30 13:29 22.55177 -49.33952 38010 ft 414 kts 236°
2026-04-30 13:31 22.45505 -49.45591 38006 ft 417 kts 236°
2026-04-30 13:32 22.35762 -49.57288 38006 ft 421 kts 236°
2026-04-30 13:33 22.27911 -49.66694 38020 ft 423 kts 236°
2026-04-30 13:34 22.21988 -49.73778 38022 ft 424 kts 236°
2026-04-30 13:35 22.14064 -49.83242 38026 ft 425 kts 236°
2026-04-30 13:36 22.06142 -49.92692 38022 ft 425 kts 236°
2026-04-30 13:36 22.00179 -49.99795 38029 ft 425 kts 235°
2026-04-30 13:37 21.94521 -50.07065 38029 ft 422 kts 238°
2026-04-30 13:38 21.88947 -50.14414 38042 ft 422 kts 237°
2026-04-30 13:39 21.81483 -50.24142 38016 ft 422 kts 237°
2026-04-30 13:40 21.75861 -50.31455 38012 ft 422 kts 237°
2026-04-30 13:40 21.72115 -50.36321 38031 ft 422 kts 237°
2026-04-30 13:41 21.68369 -50.41182 38041 ft 422 kts 237°
2026-04-30 13:41 21.64642 -50.46013 38030 ft 422 kts 237°
2026-04-30 13:42 21.60886 -50.50879 38029 ft 422 kts 237°
2026-04-30 13:42 21.55274 -50.58139 38029 ft 422 kts 237°
2026-04-30 13:43 21.52131 -50.62201 38029 ft 422 kts 237°
2026-04-30 13:43 21.48374 -50.67052 38029 ft 422 kts 237°
2026-04-30 13:44 21.44644 -50.71866 38030 ft 422 kts 237°
2026-04-30 13:44 21.40879 -50.76718 38029 ft 422 kts 237°
2026-04-30 13:45 21.35267 -50.83945 38031 ft 421 kts 236°
2026-04-30 13:46 21.31510 -50.88779 38033 ft 421 kts 236°
2026-04-30 13:46 21.27747 -50.93615 38035 ft 421 kts 236°
2026-04-30 13:47 21.24009 -50.98415 38038 ft 421 kts 236°
2026-04-30 13:47 21.20244 -51.03245 38031 ft 421 kts 236°
2026-04-30 13:48 21.16478 -51.08072 38031 ft 421 kts 236°
2026-04-30 13:48 21.12738 -51.12863 38032 ft 421 kts 236°
2026-04-30 13:49 21.08973 -51.17680 38036 ft 421 kts 236°
2026-04-30 13:49 21.05205 -51.22498 38031 ft 422 kts 236°
2026-04-30 13:50 21.01450 -51.27294 38028 ft 422 kts 236°
2026-04-30 13:50 20.95773 -51.34539 38033 ft 423 kts 236°
2026-04-30 13:51 20.92007 -51.39339 38033 ft 423 kts 236°
2026-04-30 13:51 20.88214 -51.44169 38035 ft 424 kts 236°
2026-04-30 13:52 20.84418 -51.48999 38037 ft 424 kts 236°
2026-04-30 13:52 20.80620 -51.53829 38035 ft 424 kts 236°
2026-04-30 13:53 20.76836 -51.58636 38037 ft 425 kts 236°
2026-04-30 13:53 20.73021 -51.63476 38033 ft 425 kts 236°
2026-04-30 13:54 20.69205 -51.68316 38039 ft 425 kts 236°
2026-04-30 13:54 20.65409 -51.73126 38034 ft 426 kts 236°
2026-04-30 13:55 20.61587 -51.77964 38044 ft 426 kts 236°
2026-04-30 13:55 20.57757 -51.82808 38034 ft 426 kts 236°
2026-04-30 13:56 20.53932 -51.87642 38048 ft 426 kts 236°
2026-04-30 13:56 20.50103 -51.92477 38049 ft 426 kts 236°
2026-04-30 13:57 20.46292 -51.97284 38038 ft 426 kts 236°
2026-04-30 13:57 20.42459 -52.02117 38047 ft 426 kts 236°
2026-04-30 13:58 20.36710 -52.09355 38039 ft 426 kts 236°
2026-04-30 13:59 20.32895 -52.14154 38040 ft 426 kts 236°
2026-04-30 13:59 20.29049 -52.18988 38048 ft 426 kts 235°
2026-04-30 14:00 20.25204 -52.23817 38043 ft 427 kts 235°
2026-04-30 14:00 20.19460 -52.31023 38043 ft 427 kts 235°
2026-04-30 14:01 20.15601 -52.35859 38040 ft 428 kts 235°
2026-04-30 14:01 20.11741 -52.40692 38036 ft 428 kts 235°
2026-04-30 14:02 20.07896 -52.45502 38036 ft 429 kts 235°
2026-04-30 14:02 20.04018 -52.50350 38037 ft 430 kts 235°
2026-04-30 14:03 20.00138 -52.55195 38040 ft 430 kts 235°
2026-04-30 14:03 19.96247 -52.60051 38041 ft 431 kts 235°
2026-04-30 14:04 19.92378 -52.64875 38041 ft 431 kts 235°
2026-04-30 14:04 19.88481 -52.69730 38042 ft 432 kts 235°
2026-04-30 14:05 19.84575 -52.74593 38041 ft 433 kts 235°
2026-04-30 14:05 19.80656 -52.79466 38057 ft 433 kts 235°
2026-04-30 14:06 19.74794 -52.86749 38058 ft 434 kts 235°
2026-04-30 14:07 19.68902 -52.94060 38026 ft 435 kts 235°
2026-04-30 14:08 19.62996 -53.01379 38027 ft 435 kts 235°
2026-04-30 14:08 19.57075 -53.08708 38048 ft 436 kts 235°
2026-04-30 14:09 19.53145 -53.13568 38041 ft 436 kts 235°
2026-04-30 14:10 19.47206 -53.20903 38050 ft 436 kts 235°
2026-04-30 14:10 19.43252 -53.25783 38047 ft 436 kts 235°
2026-04-30 14:11 19.39326 -53.30624 38049 ft 435 kts 235°
2026-04-30 14:11 19.35381 -53.35485 38040 ft 435 kts 235°
2026-04-30 14:12 19.31444 -53.40332 38042 ft 434 kts 235°
2026-04-30 14:12 19.27498 -53.45185 38045 ft 434 kts 235°
2026-04-30 14:13 19.23563 -53.50021 38041 ft 433 kts 235°
2026-04-30 14:13 19.19624 -53.54858 38040 ft 433 kts 235°
2026-04-30 14:14 19.15714 -53.59656 38042 ft 432 kts 235°
2026-04-30 14:14 19.11783 -53.64476 38042 ft 432 kts 235°
2026-04-30 14:15 19.07858 -53.69285 38037 ft 431 kts 235°
2026-04-30 14:15 19.03958 -53.74059 38035 ft 431 kts 236°
2026-04-30 14:16 19.00045 -53.78845 38036 ft 430 kts 236°
2026-04-30 14:16 18.96118 -53.83645 38036 ft 430 kts 236°
2026-04-30 14:17 18.92198 -53.88433 38037 ft 430 kts 236°
2026-04-30 14:17 18.88305 -53.93185 38038 ft 430 kts 236°
2026-04-30 14:18 18.84393 -53.97956 38034 ft 429 kts 236°
2026-04-30 14:18 18.78518 -54.05113 38027 ft 429 kts 236°
2026-04-30 14:19 18.72668 -54.12232 38030 ft 429 kts 236°
2026-04-30 14:20 18.68747 -54.16999 38033 ft 429 kts 236°
2026-04-30 14:20 18.62884 -54.24120 38030 ft 429 kts 236°
2026-04-30 14:21 18.58957 -54.28885 38029 ft 430 kts 236°
2026-04-30 14:22 18.53088 -54.36000 38030 ft 430 kts 236°
2026-04-30 14:22 18.47195 -54.43135 38032 ft 430 kts 235°
2026-04-30 14:23 18.39322 -54.52655 38029 ft 431 kts 236°
2026-04-30 14:24 18.33412 -54.59792 38035 ft 431 kts 236°
2026-04-30 14:25 18.25532 -54.69295 38031 ft 431 kts 236°
2026-04-30 14:26 18.19625 -54.76409 38033 ft 431 kts 236°
2026-04-30 14:27 18.13696 -54.83543 38029 ft 432 kts 236°
2026-04-30 14:27 18.09765 -54.88270 38038 ft 432 kts 236°
2026-04-30 14:28 18.03819 -54.95415 38029 ft 432 kts 236°
2026-04-30 14:28 18.00073 -55.00314 38025 ft 426 kts 242°
2026-04-30 14:29 17.94969 -55.10195 38041 ft 421 kts 248°
2026-04-30 14:31 17.88223 -55.23869 38019 ft 421 kts 248°
2026-04-30 14:31 17.84190 -55.32026 38031 ft 421 kts 248°
2026-04-30 14:32 17.80133 -55.40221 38038 ft 421 kts 248°
2026-04-30 14:33 17.77431 -55.45676 38032 ft 422 kts 248°
2026-04-30 14:33 17.73365 -55.53871 38009 ft 422 kts 248°
2026-04-30 14:34 17.70649 -55.59341 38009 ft 422 kts 248°
2026-04-30 14:34 17.67951 -55.64768 38030 ft 422 kts 248°
2026-04-30 14:35 17.63874 -55.72962 38026 ft 422 kts 248°
2026-04-30 14:36 17.61152 -55.78427 38024 ft 422 kts 248°
2026-04-30 14:36 17.58427 -55.83892 38020 ft 423 kts 248°
2026-04-30 14:37 17.55717 -55.89324 38018 ft 423 kts 248°
2026-04-30 14:37 17.52988 -55.94789 38023 ft 423 kts 248°
2026-04-30 14:38 17.50257 -56.00253 38022 ft 423 kts 248°
2026-04-30 14:38 17.47524 -56.05717 38020 ft 423 kts 248°
2026-04-30 14:39 17.44802 -56.11153 38022 ft 423 kts 248°
2026-04-30 14:39 17.42068 -56.16609 38020 ft 423 kts 248°
2026-04-30 14:40 17.37961 -56.24797 38018 ft 423 kts 248°
2026-04-30 14:40 17.35219 -56.30256 38019 ft 423 kts 248°
2026-04-30 14:41 17.32495 -56.35678 38016 ft 423 kts 248°
2026-04-30 14:41 17.29746 -56.41141 38019 ft 423 kts 248°
2026-04-30 14:42 17.26999 -56.46598 38020 ft 423 kts 248°
2026-04-30 14:42 17.24250 -56.52054 38017 ft 423 kts 248°
2026-04-30 14:43 17.21516 -56.57476 38019 ft 423 kts 248°
2026-04-30 14:43 17.18765 -56.62927 38017 ft 423 kts 248°
2026-04-30 14:44 17.16013 -56.68376 38011 ft 423 kts 248°
2026-04-30 14:44 17.13260 -56.73823 38014 ft 423 kts 248°
2026-04-30 14:45 17.10510 -56.79257 38012 ft 423 kts 248°
2026-04-30 14:45 17.07771 -56.84669 38011 ft 423 kts 248°
2026-04-30 14:46 17.05012 -56.90111 38009 ft 423 kts 248°
2026-04-30 14:46 17.02248 -56.95564 38010 ft 423 kts 248°
2026-04-30 14:47 16.99452 -57.00940 38011 ft 425 kts 245°
2026-04-30 14:47 16.96307 -57.06191 38012 ft 426 kts 244°
2026-04-30 14:48 16.93168 -57.11466 38007 ft 426 kts 244°
2026-04-30 14:48 16.90054 -57.16705 38008 ft 426 kts 244°
2026-04-30 14:49 16.86918 -57.21975 38012 ft 426 kts 244°
2026-04-30 14:49 16.83786 -57.27233 38010 ft 426 kts 244°
2026-04-30 14:50 16.79086 -57.35117 38011 ft 426 kts 244°
2026-04-30 14:51 16.74396 -57.42972 38009 ft 426 kts 244°
2026-04-30 14:52 16.69684 -57.50854 38007 ft 427 kts 244°
2026-04-30 14:52 16.64968 -57.58733 38010 ft 427 kts 244°
2026-04-30 14:53 16.60251 -57.66604 38009 ft 427 kts 244°
2026-04-30 14:54 16.53972 -57.77070 38015 ft 427 kts 244°
2026-04-30 14:55 16.49233 -57.84957 38003 ft 427 kts 244°
2026-04-30 14:56 16.42935 -57.95426 38007 ft 427 kts 244°
2026-04-30 14:57 16.38193 -58.03299 38007 ft 428 kts 244°
2026-04-30 14:58 16.31870 -58.13782 38006 ft 428 kts 244°
2026-04-30 14:58 16.27115 -58.21656 38006 ft 428 kts 244°
2026-04-30 15:00 16.19201 -58.34742 38000 ft 428 kts 244°
2026-04-30 15:01 16.12868 -58.45197 38003 ft 428 kts 244°
2026-04-30 15:01 16.08097 -58.53063 37999 ft 428 kts 244°
2026-04-30 15:02 16.04917 -58.58301 38002 ft 428 kts 244°
2026-04-30 15:03 15.96969 -58.71376 38000 ft 428 kts 243°
2026-04-30 15:04 15.88992 -58.84477 37997 ft 428 kts 243°
2026-04-30 15:06 15.81037 -58.97518 37998 ft 429 kts 243°
2026-04-30 15:07 15.74646 -59.07978 37993 ft 429 kts 243°
2026-04-30 15:08 15.68246 -59.18439 37994 ft 429 kts 243°
2026-04-30 15:09 15.60242 -59.31499 37992 ft 430 kts 243°
2026-04-30 15:10 15.53834 -59.41939 37995 ft 430 kts 243°
2026-04-30 15:11 15.44182 -59.57637 37990 ft 431 kts 243°
2026-04-30 15:13 15.36096 -59.70762 37987 ft 432 kts 243°
2026-04-30 15:14 15.24784 -59.89088 37996 ft 432 kts 242°
2026-04-30 15:17 15.10162 -60.12712 37991 ft 433 kts 242°
2026-04-30 15:19 14.97666 -60.32842 37989 ft 434 kts 242°
2026-04-30 17:39 4.97498 -74.43252 11611 ft 256 kts 139°
2026-04-30 17:41 4.86587 -74.33909 11797 ft 256 kts 140°
2026-04-30 17:42 4.84490 -74.32114 11821 ft 218 kts 132°
2026-04-30 17:42 4.81694 -74.28951 11596 ft 195 kts 127°
2026-04-30 17:43 4.80107 -74.26846 11163 ft 184 kts 127°
2026-04-30 17:44 4.77925 -74.23940 10421 ft 168 kts 125°
2026-04-30 17:44 4.75879 -74.21159 9832 ft 162 kts 128°
2026-04-30 17:46 4.72481 -74.16666 8807 ft 159 kts 130°
2026-04-30 17:47 4.70163 -74.13655 8373 ft 59 kts 127°
2026-04-30 17:48 4.69657 -74.13291 8374 ft 16 kts 171°
2026-04-30 17:48 4.69631 -74.13395 8370 ft 9 kts 307°
2026-04-30 17:49 4.69855 -74.13719 8370 ft 12 kts 265°
2026-04-30 17:50 4.69804 -74.13872 8371 ft 0 kts 217°